"Pseudo-MPEC" for A11iqdx

Created 2025 Feb 7 4:31:03 UT using Find_Orb

Click here for an explanation of pseudo-MPECs

 
 Astrometry: 
     A11iqdx* C2025 01 29.96064608 21 29.026+06 55 32.05   ~1U8H 17.40oVNEOCPM22
     A11iqdx  C2025 01 29.96425308 21 34.906+07 02 08.88   ~1U8H 17.51oVNEOCPM22
     A11iqdx  C2025 01 29.97107708 21 46.008+07 14 37.93   ~1U8H 17.43oVNEOCPM22
     A11iqdx  C2025 01 29.98695508 22 11.849+07 43 23.66   ~1U8H 17.41oVNEOCPM22

Station data:
(M22) ATLAS South Africa, Sutherland  (S32.380156 E20.810590)  South Africa.
   Observers L. Denneau, R. Siverd, J. Tonry, H. Weiland. Measurers L.
   Denneau, N. Erasmus, A. Fitzsimmons, A. Lawrence, J. Robinson, R. Siverd,
   J. Tonry, H. Weiland. 0.5-m reflector + CCD.

Orbital elements:  A11iqdx
   Perihelion 2025 Feb 3.29312 +/- 17.8 TT =  7:02:05 (JD 2460709.79312)
Epoch 2025 Jan 30.0 TT = JDT 2460705.5   Earth MOID: 0.0159      AutoNEOCP
M 357.69679112 +/- 18               (J2000 ecliptic)
n   0.53648798 +/- 0.321            Peri.    4.48919 +/- 25
a   1.50001653 +/- 0.598            Node   130.27618 +/- 0.07
e   0.3331374 +/- 0.257             Incl.   27.87905 +/- 9
P   1.837/671.018d         H 25.94  G  0.15   U 12.0  SR
q 1.00030485 +/- 0.111    Q 1.99972821 +/- 6.57
From 4 observations 2025 Jan. 29 (37.9 min); mean residual 2".81
Residuals in arcseconds: 
250129 M22  .60-  4.1-    250129 M22  .78+  6.2+    
250129 M22  .16+  .42+    250129 M22  .34-  2.6-    

Ephemerides (geocentric):
Date (UTC) HH   RA             Dec           delta  r     elong  mag " sig PA
---- --------  ------------   ------------  ------ ------ -----  --- --------
2025 02 07 05  16 37 37.577   +73 07 37.41  .07379 1.0010  99.4 23.0 852' 145
2025 02 07 06  16 38 20.159   +73 05 27.21  .07416 1.0010  99.4 23.0 853' 145
2025 02 07 07  16 39 02.125   +73 03 17.80  .07454 1.0010  99.3 23.0 854' 145
2025 02 07 08  16 39 43.488   +73 01 09.17  .07491 1.0011  99.2 23.0 855' 145
2025 02 07 09  16 40 24.261   +72 59 01.33  .07529 1.0011  99.2 23.0 855' 144
2025 02 07 10  16 41 04.453   +72 56 54.27  .07566 1.0011  99.1 23.0 856' 144
2025 02 07 11  16 41 44.078   +72 54 48.00  .07604 1.0011  99.0 23.0 857' 144
2025 02 07 12  16 42 23.145   +72 52 42.50  .07641 1.0011  99.0 23.0 858' 144
2025 02 07 13  16 43 01.667   +72 50 37.79  .07679 1.0011  98.9 23.1 859' 144
2025 02 07 14  16 43 39.652   +72 48 33.86  .07716 1.0012  98.9 23.1 860' 144
2025 02 07 15  16 44 17.113   +72 46 30.71  .07754 1.0012  98.8 23.1 861' 144
2025 02 07 16  16 44 54.059   +72 44 28.34  .07791 1.0012  98.8 23.1 861' 143
2025 02 07 17  16 45 30.499   +72 42 26.74  .07829 1.0012  98.7 23.1 862' 143
2025 02 07 18  16 46 06.444   +72 40 25.91  .07866 1.0012  98.6 23.1 863' 143
2025 02 07 19  16 46 41.902   +72 38 25.85  .07904 1.0012  98.6 23.1 864' 143
2025 02 07 20  16 47 16.883   +72 36 26.56  .07941 1.0013  98.5 23.1 865' 143
2025 02 07 21  16 47 51.396   +72 34 28.04  .07979 1.0013  98.5 23.1 866' 143
2025 02 07 22  16 48 25.450   +72 32 30.27  .08016 1.0013  98.4 23.2 866' 143
2025 02 07 23  16 48 59.052   +72 30 33.27  .08054 1.0013  98.4 23.2 867' 143
2025 02 08 00  16 49 32.213   +72 28 37.02  .08091 1.0013  98.3 23.2 868' 142
2025 02 08 01  16 50 04.938   +72 26 41.52  .08129 1.0014  98.3 23.2 869' 142
2025 02 08 02  16 50 37.237   +72 24 46.77  .08166 1.0014  98.2 23.2 870' 142
2025 02 08 03  16 51 09.118   +72 22 52.76  .08204 1.0014  98.2 23.2 871' 142
2025 02 08 04  16 51 40.587   +72 20 59.50  .08241 1.0014  98.1 23.2 871' 142
2025 02 08 05  16 52 11.653   +72 19 06.97  .08279 1.0014  98.1 23.2 872' 142
2025 02 08 06  16 52 42.322   +72 17 15.18  .08317 1.0015  98.0 23.2 873' 142
2025 02 08 07  16 53 12.602   +72 15 24.11  .08354 1.0015  98.0 23.3 874' 141
2025 02 08 08  16 53 42.499   +72 13 33.77  .08392 1.0015  97.9 23.3 875' 141
2025 02 08 09  16 54 12.021   +72 11 44.16  .08429 1.0015  97.9 23.3 876' 141
2025 02 08 10  16 54 41.173   +72 09 55.26  .08467 1.0015  97.8 23.3 876' 141
2025 02 08 11  16 55 09.963   +72 08 07.07  .08504 1.0016  97.8 23.3 877' 141
2025 02 08 12  16 55 38.397   +72 06 19.59  .08542 1.0016  97.7 23.3 878' 141
2025 02 08 13  16 56 06.481   +72 04 32.82  .08579 1.0016  97.7 23.3 879' 141
2025 02 08 14  16 56 34.220   +72 02 46.74  .08617 1.0016  97.6 23.3 880' 141
2025 02 08 15  16 57 01.622   +72 01 01.36  .08654 1.0016  97.6 23.3 880' 140
2025 02 08 16  16 57 28.691   +71 59 16.68  .08692 1.0017  97.6 23.3 881' 140
2025 02 08 17  16 57 55.434   +71 57 32.68  .08730 1.0017  97.5 23.4 882' 140
2025 02 08 18  16 58 21.855   +71 55 49.36  .08767 1.0017  97.5 23.4 883' 140
2025 02 08 19  16 58 47.961   +71 54 06.72  .08805 1.0017  97.4 23.4 884' 140
2025 02 08 20  16 59 13.756   +71 52 24.76  .08842 1.0018  97.4 23.4 884' 140
2025 02 08 21  16 59 39.246   +71 50 43.46  .08880 1.0018  97.3 23.4 885' 140
2025 02 08 22  17 00 04.436   +71 49 02.83  .08917 1.0018  97.3 23.4 886' 140
2025 02 08 23  17 00 29.331   +71 47 22.85  .08955 1.0018  97.2 23.4 887' 140
2025 02 09 00  17 00 53.935   +71 45 43.54  .08993 1.0018  97.2 23.4 887' 139
2025 02 09 01  17 01 18.254   +71 44 04.87  .09030 1.0019  97.2 23.4 888' 139
2025 02 09 02  17 01 42.292   +71 42 26.85  .09068 1.0019  97.1 23.4 889' 139
2025 02 09 03  17 02 06.054   +71 40 49.47  .09105 1.0019  97.1 23.5 890' 139
2025 02 09 04  17 02 29.544   +71 39 12.73  .09143 1.0019  97.0 23.5 891' 139